Weather Roundup
Issued by NWS Corpus Christi, TX

Home | Current Version | Previous Version | Text Only | Print | Product List | Glossary On
Versions: 1 2 3 4 5 6 7 8 9 10 11 12 13 14 15 16 17 18 19 20 21 22 23 24 25 26 27 28 29 30 31 32 33 34 35 36 37 38 39 40 41 42 43 44 45 46 47 48 49 50
000
ASUS44 KCRP 071510
HRRCRP

SOUTH TEXAS REGIONAL WEATHER ROUNDUP
NATIONAL WEATHER SERVICE CORPUS CHRISTI TX
1000 AM CDT TUE JUL 07 2015


TXZ229>244-071600-
...CORPUS CHRISTI AREA OBSERVATIONS...

CITY           SKY/WX    TMP DP  RH WIND       PRES   REMARKS
CORPUS CHRISTI CLOUDY    88  76  67 S25G32    29.99F HX  99
NAS CORPUS CHR CLOUDY    84  79  85 SE18G29   30.00S HX  96
ROCKPORT       LGT RAIN  86  77  74 S15G23    30.01R HX  97
KINGSVILLE NAS PTSUNNY   86  79  79 SE18G31   29.98F HX  99
ALICE          CLOUDY    86  76  71 S21       29.98F HX  96
FALFURRIAS     CLOUDY    84  76  77 SE16G22   29.98S HX  93
$$

...VICTORIA AREA OBSERVATIONS...

CITY           SKY/WX    TMP DP  RH WIND       PRES   REMARKS
VICTORIA       PTSUNNY   86  78  77 SE23G29   30.01F HX  98
BEEVILLE       FAIR      84  77  79 S18G25    30.00F HX  94
PLEASANTON     PTSUNNY   82  73  73 SE14G22   30.00S
SAN ANTONIO    CLOUDY    83  72  69 S18       30.01R
$$

...LAREDO AREA OBSERVATIONS...

CITY           SKY/WX    TMP DP  RH WIND       PRES   REMARKS
LAREDO         CLOUDY    84  72  67 S18       29.98R
COTULLA        CLOUDY    82  73  74 S16G23    29.97S
DEL RIO        CLOUDY    79  71  76 E13       29.96S
MCALLEN        PTSUNNY   87  75  67 SE24G31   29.97F HX  96
HEBBRONVILLE     N/A     81  73  76 SE18G26   29.99S
$$

...OTHER TEXAS OBSERVATIONS...

CITY           SKY/WX    TMP DP  RH WIND       PRES   REMARKS
BROWNSVILLE    PTSUNNY   85  76  74 SE24G31   30.01R HX  94
HOUSTON        PTSUNNY   86  76  71 S9G20     30.03S HX  96
COL. STATION   PTSUNNY   84  75  74 S17G25    30.01S HX  92
AUSTIN         PTSUNNY   83  74  74 S17       30.00S
WACO           CLOUDY    84  72  67 S20G31    30.00R
FORT WORTH     CLOUDY    84  73  69 S15       29.98S HX  90
WICHITA FALLS  LGT RAIN  72  71  97 N9        29.97S FOG
LUBBOCK        CLOUDY    69  66  90 N15       30.08R
EL PASO        MOSUNNY   80  61  52 NE7       30.11R
$$

...MARINE OBSERVATIONS...

STATION/POSITION TIME  SKY/WX   TEMP    WIND        PRES    VSBY  WAVE   SWELL
                                AIR SEA DIR/SP/G                  HT/PER HT/PER
                 (UTC)          (F)     (DEG/KT/KT) (MB)    (MI)  (FT/S) (FT/S)
PORT ARANSAS     1500            82 82  140/ 18/ 20 1016.5S
BUOY 90 E PORT A NOT AVBL
BUOY 45 SE BAFFI 1450            83 83  160/ 19/ 23 1015.8R         5/ 6
BUOY 200 E PT IS 1450            85 84  140/ 16/ 17 1018.0R         3/ 6
BUOY 15 E GALVES 1450            83 84  190/ 12/ 16 1017.2F         4/ 6   2/ 6
$$


USA.gov is the U.S. government's official web portal to all federal, state and local government web resources and services.